STARLINK-1273, 45367

Orbit data source: Space-Track

STARLINK-1273, 45367 is a payload satellite owned by SpaceX/Seattle (US) in LEO that was launched on Wed, 18 Mar 2020 UTC via an FALCON 9 launch vehicle from the Air Force Eastern Test Range (AFETR). Payload-class satellites include a variety of spacecraft equipped with specific instruments for various scientific and technological missions. These include communications satellites like Starlink; space stations such as the ISS; scientific satellites like the Hubble; Earth observation satellites from companies like Planet Labs, Umbra, and HawkEye 360; GPS; miniature CubeSats for education and research; and military/defense satellites.

Loading next visibility...
Identifier
45367, 2020-019H
Orbit
LEO
Country
Flag of USUS
Related business
Manufacturer
SpaceX/Seattle
Mission
Operational Commercial Communications
Bus & Motor
STARLINK, Unknown motor
Mass
260 kg wet, ~248 kg dry
Launch date (UTC)
2020-03-18 (6 years ago)
Launch vehicle
FALCON 9
Launch site
Air Force Eastern Test Range (AFETR)
Object type
Payload
Rocket body
Debris
Shape & HBR
Box + 1 Pan, 10.1 m
Radar Cross Section
13.562 m², Large (>1 m²)

Expand to show TLE details & history
Last TLE update: 22 hours ago

TLE from 22 hours ago
0 STARLINK-1273
1 45367U 20019H   25287.88366688  .00000268  00000-0  36869-4 0  9996
2 45367  53.0534 101.1658 0001332  93.1327 266.9814 15.06390406307755
Epoch: 2025-10-14T21:12Z
TLE epoch observation values (Epoch: 2025-10-14T21:12:28.818Z)
Latitude
-0.00005°
Longitude
119.37999°
Altitude
548.169 km
Speed
7.589 km/s
True Right ascension
06h 44m 39s
True Declination
0° 00' 00"
Sunlit
Object was in daylight at epoch
Visualization orbit readout
Latitude
Unknown
Longitude
Unknown
Altitude
Unknown
Speed
Unknown
Apparent Right ascension
Unknown
Apparent Declination
Unknown
Sunlit
N/A
Visualization observer readout
Local Sidereal Time
13:40:31
Azimuth
Unknown
Elevation
Unknown
Doppler factor
Unknown
Orbital elements
Apogee altitude
548.434 km
Perigee altitude
546.589 km
Semi-major axis
6,925.649 km
Eccentricity
0.00013
Inclination
53.0534°
RAAN
101.1658°
Arg. of periapsis
93.1327°
True anomaly
266.96616°
Mean anomaly
266.9814°
Eccentric anomaly
266.97378°
Mean motion
3.76576 °/min
Orbital period
95.6 mins
BSTAR
0.000036869
Loading maneuver chart data...
Computing Atmospheric mass density...
Loading historical data...
Loading historical data...
Loading historical data...
Loading historical data...
Loading historical data...
Loading historical data...
Loading historical data...

Documentation

Showing up to 5 results
|